W44 EFHK-ENTC

Flight info

Callsign W44
Flight time 1h 37m
Altitude 40000
Route NEPEK Y361 NISVI DCT GIDKI DCT OGTUD DCT SUTEV DCT RIXEM DCT MANKI
Aircraft LJ35/M-SGHRWXY/SB1

Departure

Time 2026-04-26 16:43
Airport Helsinki Vantaa Airport (EFHK)

Arrival

Time 2026-04-26 18:21
Airport Tromsø Airport (ENTC)
Time Latitude Longitude Altitude Speed Heading
2026-04-26 16:25 60.30849 24.97961 156 ft 0 kts 208°
2026-04-26 16:37 60.30844 24.97958 156 ft 4 kts 187°
2026-04-26 16:37 60.30880 24.98011 156 ft 15 kts
2026-04-26 16:37 60.30918 24.98091 154 ft 16 kts 62°
2026-04-26 16:38 60.31090 24.98102 152 ft 28 kts 333°
2026-04-26 16:38 60.31285 24.97901 152 ft 35 kts 333°
2026-04-26 16:38 60.31482 24.97696 150 ft 30 kts 330°
2026-04-26 16:38 60.31670 24.97503 153 ft 30 kts 334°
2026-04-26 16:39 60.31833 24.97336 156 ft 25 kts 333°
2026-04-26 16:39 60.31992 24.97172 159 ft 25 kts 333°
2026-04-26 16:39 60.32098 24.97065 160 ft 26 kts 333°
2026-04-26 16:39 60.32277 24.96880 159 ft 22 kts 332°
2026-04-26 16:40 60.32293 24.96736 160 ft 16 kts 227°
2026-04-26 16:40 60.32204 24.96564 162 ft 20 kts 226°
2026-04-26 16:40 60.32099 24.96334 162 ft 25 kts 228°
2026-04-26 16:40 60.31971 24.96052 163 ft 29 kts 227°
2026-04-26 16:41 60.31823 24.95725 164 ft 34 kts 228°
2026-04-26 16:41 60.31667 24.95381 164 ft 33 kts 229°
2026-04-26 16:41 60.31539 24.95094 164 ft 23 kts 228°
2026-04-26 16:41 60.31423 24.94843 160 ft 19 kts 232°
2026-04-26 16:42 60.31469 24.94597 158 ft 23 kts 317°
2026-04-26 16:42 60.31563 24.94590 159 ft 3 kts 49°
2026-04-26 16:42 60.31588 24.94648 159 ft 34 kts 48°
2026-04-26 16:42 60.32056 24.95685 258 ft 148 kts 50°
2026-04-26 16:43 60.32733 24.97345 778 ft 163 kts 44°
2026-04-26 16:43 60.33532 24.99301 1765 ft 194 kts 41°
2026-04-26 16:43 60.34549 25.01278 2705 ft 212 kts 38°
2026-04-26 16:43 60.35617 25.03458 3927 ft 223 kts 42°
2026-04-26 16:44 60.36740 25.05952 5671 ft 255 kts 44°
2026-04-26 16:44 60.37966 25.08694 7593 ft 276 kts 43°
2026-04-26 16:44 60.39497 25.11116 9692 ft 284 kts 26°
2026-04-26 16:44 60.41355 25.12564 11717 ft 288 kts
2026-04-26 16:45 60.43345 25.12790 13815 ft 286 kts 349°
2026-04-26 16:45 60.45264 25.11870 15738 ft 283 kts 340°
2026-04-26 16:45 60.47136 25.10662 17738 ft 279 kts 338°
2026-04-26 16:45 60.49016 25.09526 19262 ft 286 kts 341°
2026-04-26 16:46 60.50984 25.08563 20536 ft 297 kts 342°
2026-04-26 16:46 60.53055 25.07514 21416 ft 320 kts 340°
2026-04-26 16:46 60.55311 25.06302 22060 ft 348 kts 342°
2026-04-26 16:46 60.57722 25.05182 23196 ft 353 kts 345°
2026-04-26 16:47 60.59964 25.04473 25735 ft 295 kts 349°
2026-04-26 16:47 60.61853 25.04166 28271 ft 259 kts 352°
2026-04-26 16:47 60.63693 25.03912 28818 ft 283 kts 352°
2026-04-26 16:47 60.65885 25.03682 27766 ft 350 kts 355°
2026-04-26 16:48 60.68411 25.02928 27711 ft 378 kts 340°
2026-04-26 16:48 60.70880 25.01046 28591 ft 380 kts 335°
2026-04-26 16:48 60.73351 24.99007 29470 ft 386 kts 336°
2026-04-26 16:48 60.75926 24.97294 30164 ft 393 kts 342°
2026-04-26 16:49 60.78624 24.96070 30780 ft 399 kts 346°
2026-04-26 16:49 60.81325 24.94935 31354 ft 404 kts 345°
2026-04-26 16:49 60.84060 24.93495 31916 ft 408 kts 342°
2026-04-26 16:49 60.86812 24.91916 32432 ft 413 kts 342°
2026-04-26 16:50 60.89618 24.90442 32956 ft 418 kts 344°
2026-04-26 16:50 60.92470 24.89031 33457 ft 423 kts 344°
2026-04-26 16:50 60.95337 24.87554 33915 ft 427 kts 343°
2026-04-26 16:50 60.98223 24.86001 34283 ft 431 kts 343°
2026-04-26 16:51 61.01146 24.84447 34655 ft 435 kts 343°
2026-04-26 16:51 61.04088 24.82920 35012 ft 438 kts 343°
2026-04-26 16:51 61.07059 24.81371 35352 ft 442 kts 343°
2026-04-26 16:51 61.10047 24.79784 35649 ft 445 kts 343°
2026-04-26 16:52 61.13057 24.78182 35942 ft 448 kts 343°
2026-04-26 16:52 61.15055 24.77123 36123 ft 450 kts 343°
2026-04-26 16:52 61.19128 24.74970 36455 ft 453 kts 343°
2026-04-26 16:52 61.22188 24.73343 36646 ft 455 kts 343°
2026-04-26 16:53 61.25263 24.71700 36832 ft 457 kts 343°
2026-04-26 16:53 61.28348 24.70051 36967 ft 459 kts 343°
2026-04-26 16:53 61.31408 24.68414 37090 ft 460 kts 343°
2026-04-26 16:53 61.34517 24.66747 37184 ft 462 kts 343°
2026-04-26 16:54 61.40742 24.63398 37312 ft 463 kts 343°
2026-04-26 16:54 61.46987 24.60021 37380 ft 464 kts 343°
2026-04-26 16:55 61.53213 24.56651 37390 ft 460 kts 343°
2026-04-26 16:55 61.56272 24.54985 37399 ft 444 kts 343°
2026-04-26 16:55 61.59205 24.53388 37388 ft 427 kts 343°
2026-04-26 16:56 61.64864 24.50282 37699 ft 421 kts 343°
2026-04-26 16:56 61.67708 24.48719 38117 ft 424 kts 343°
2026-04-26 16:56 61.70573 24.47152 38458 ft 427 kts 342°
2026-04-26 16:57 61.73458 24.45567 38757 ft 430 kts 343°
2026-04-26 16:57 61.76364 24.43961 39054 ft 432 kts 343°
2026-04-26 16:57 61.82208 24.40727 39606 ft 437 kts 343°
2026-04-26 16:58 61.85163 24.39089 39828 ft 440 kts 343°
2026-04-26 16:58 61.87140 24.37987 39831 ft 446 kts 343°
2026-04-26 16:59 61.97315 24.32315 39856 ft 451 kts 343°
2026-04-26 17:00 62.09404 24.25507 39878 ft 455 kts 343°
2026-04-26 17:00 62.18622 24.20288 39879 ft 458 kts 343°
2026-04-26 17:01 62.24833 24.17128 39886 ft 460 kts 347°
2026-04-26 17:01 62.31097 24.14500 39888 ft 454 kts 346°
2026-04-26 17:02 62.37203 24.11553 39886 ft 447 kts 346°
2026-04-26 17:02 62.43277 24.08849 39885 ft 444 kts 346°
2026-04-26 17:03 62.49310 24.06021 39883 ft 443 kts 346°
2026-04-26 17:03 62.55335 24.03249 39880 ft 442 kts 346°
2026-04-26 17:04 62.61339 24.00447 39885 ft 441 kts 346°
2026-04-26 17:04 62.67308 23.97660 39888 ft 445 kts 346°
2026-04-26 17:05 62.73432 23.94792 39900 ft 452 kts 346°
2026-04-26 17:05 62.79575 23.91910 39906 ft 449 kts 346°
2026-04-26 17:06 62.85675 23.89014 39910 ft 448 kts 346°
2026-04-26 17:06 62.91764 23.86126 39912 ft 447 kts 346°
2026-04-26 17:07 62.97834 23.83228 39914 ft 446 kts 346°
2026-04-26 17:07 63.03899 23.80322 39916 ft 446 kts 346°
2026-04-26 17:08 63.09962 23.77404 39914 ft 446 kts 346°
2026-04-26 17:08 63.15979 23.74496 39917 ft 446 kts 346°
2026-04-26 17:09 63.21053 23.72036 39921 ft 446 kts 346°
2026-04-26 17:09 63.28094 23.68604 39917 ft 446 kts 346°
2026-04-26 17:10 63.34148 23.65641 39923 ft 446 kts 346°
2026-04-26 17:10 63.40202 23.62663 39925 ft 446 kts 346°
2026-04-26 17:11 63.46255 23.59676 39929 ft 446 kts 346°
2026-04-26 17:11 63.52309 23.56672 39930 ft 446 kts 346°
2026-04-26 17:12 63.61392 23.52144 39936 ft 445 kts 346°
2026-04-26 17:13 63.70473 23.47586 39940 ft 445 kts 346°
2026-04-26 17:14 63.79498 23.43027 39942 ft 445 kts 346°
2026-04-26 17:14 63.88563 23.38417 39936 ft 445 kts 346°
2026-04-26 17:15 63.97628 23.33776 39935 ft 445 kts 346°
2026-04-26 17:16 64.03666 23.30669 39931 ft 445 kts 346°
2026-04-26 17:16 64.09701 23.27548 39929 ft 445 kts 346°
2026-04-26 17:17 64.15736 23.24414 39930 ft 445 kts 346°
2026-04-26 17:17 64.21768 23.21267 39926 ft 445 kts 346°
2026-04-26 17:18 64.27803 23.18105 39929 ft 445 kts 346°
2026-04-26 17:18 64.33835 23.14929 39924 ft 445 kts 346°
2026-04-26 17:19 64.42877 23.10146 39928 ft 444 kts 346°
2026-04-26 17:19 64.48909 23.06932 39929 ft 444 kts 346°
2026-04-26 17:20 64.52900 23.04801 39929 ft 444 kts 346°
2026-04-26 17:20 64.59745 23.01128 39930 ft 444 kts 346°
2026-04-26 17:21 64.65722 22.97905 39935 ft 444 kts 346°
2026-04-26 17:21 64.71740 22.94647 39928 ft 444 kts 346°
2026-04-26 17:22 64.77755 22.91374 39930 ft 444 kts 346°
2026-04-26 17:22 64.83763 22.88091 39931 ft 443 kts 346°
2026-04-26 17:23 64.89769 22.84792 39932 ft 443 kts 346°
2026-04-26 17:23 64.95733 22.81504 39971 ft 440 kts 346°
2026-04-26 17:24 65.01702 22.78196 39968 ft 441 kts 346°
2026-04-26 17:24 65.07682 22.74867 39967 ft 442 kts 346°
2026-04-26 17:25 65.13667 22.71520 39972 ft 442 kts 346°
2026-04-26 17:25 65.19664 22.68151 39969 ft 442 kts 346°
2026-04-26 17:26 65.25611 22.64793 39976 ft 442 kts 346°
2026-04-26 17:26 65.31597 22.61400 39977 ft 442 kts 346°
2026-04-26 17:27 65.37585 22.57989 39980 ft 442 kts 346°
2026-04-26 17:27 65.43568 22.54563 39972 ft 442 kts 346°
2026-04-26 17:28 65.49550 22.51123 39977 ft 442 kts 346°
2026-04-26 17:28 65.54563 22.48228 39977 ft 442 kts 346°
2026-04-26 17:29 65.59533 22.45346 39976 ft 442 kts 346°
2026-04-26 17:29 65.66931 22.41035 39977 ft 442 kts 346°
2026-04-26 17:30 65.72903 22.37536 39975 ft 442 kts 346°
2026-04-26 17:30 65.78878 22.34020 39975 ft 441 kts 346°
2026-04-26 17:31 65.84843 22.30491 39976 ft 441 kts 346°
2026-04-26 17:31 65.90812 22.26945 39971 ft 441 kts 346°
2026-04-26 17:32 65.96739 22.23405 39977 ft 441 kts 345°
2026-04-26 17:32 66.02704 22.19826 39973 ft 441 kts 345°
2026-04-26 17:33 66.08668 22.16231 39977 ft 441 kts 345°
2026-04-26 17:34 66.17604 22.10811 39976 ft 441 kts 345°
2026-04-26 17:34 66.23558 22.07177 39977 ft 441 kts 345°
2026-04-26 17:35 66.29509 22.03529 39978 ft 440 kts 345°
2026-04-26 17:35 66.35457 21.99863 39979 ft 440 kts 345°
2026-04-26 17:36 66.41400 21.96183 39985 ft 440 kts 345°
2026-04-26 17:36 66.47341 21.92487 39978 ft 440 kts 345°
2026-04-26 17:37 66.53287 21.88769 39980 ft 440 kts 345°
2026-04-26 17:37 66.59224 21.85037 39985 ft 439 kts 345°
2026-04-26 17:38 66.68084 21.79435 39989 ft 440 kts 345°
2026-04-26 17:38 66.73991 21.75678 39992 ft 436 kts 345°
2026-04-26 17:39 66.79876 21.71914 39995 ft 436 kts 345°
2026-04-26 17:39 66.85758 21.68136 39997 ft 436 kts 345°
2026-04-26 17:40 66.89692 21.65598 40000 ft 436 kts 345°
2026-04-26 17:40 66.97509 21.60529 40001 ft 435 kts 345°
2026-04-26 17:41 67.03383 21.56698 40001 ft 435 kts 345°
2026-04-26 17:41 67.09250 21.52853 40002 ft 435 kts 345°
2026-04-26 17:42 67.15112 21.48991 40002 ft 435 kts 345°
2026-04-26 17:42 67.20979 21.45106 40003 ft 435 kts 345°
2026-04-26 17:43 67.26852 21.41200 40004 ft 436 kts 345°
2026-04-26 17:43 67.32723 21.37273 40008 ft 436 kts 345°
2026-04-26 17:44 67.38592 21.33329 40018 ft 436 kts 345°
2026-04-26 17:44 67.44427 21.29386 40028 ft 436 kts 345°
2026-04-26 17:45 67.50304 21.25398 40026 ft 436 kts 345°
2026-04-26 17:45 67.56181 21.21384 40026 ft 436 kts 345°
2026-04-26 17:46 67.62058 21.17353 40030 ft 437 kts 344°
2026-04-26 17:46 67.67938 21.13299 40025 ft 437 kts 344°
2026-04-26 17:47 67.71869 21.10577 40024 ft 437 kts 344°
2026-04-26 17:47 67.79687 21.05134 40021 ft 437 kts 344°
2026-04-26 17:48 67.85564 21.01019 40019 ft 437 kts 344°
2026-04-26 17:48 67.91439 20.96881 40022 ft 437 kts 344°
2026-04-26 17:49 67.97317 20.92723 40024 ft 437 kts 344°
2026-04-26 17:49 68.03191 20.88543 40031 ft 437 kts 344°
2026-04-26 17:50 68.09073 20.84336 40040 ft 437 kts 344°
2026-04-26 17:50 68.14950 20.80110 40047 ft 437 kts 344°
2026-04-26 17:51 68.20827 20.75864 40047 ft 438 kts 344°
2026-04-26 17:51 68.26708 20.71589 40050 ft 438 kts 344°
2026-04-26 17:52 68.32590 20.67293 40048 ft 438 kts 344°
2026-04-26 17:52 68.37480 20.63702 40054 ft 438 kts 344°
2026-04-26 17:53 68.43361 20.59364 40053 ft 438 kts 344°
2026-04-26 17:54 68.52190 20.52806 40056 ft 438 kts 344°
2026-04-26 17:54 68.57990 20.48470 39782 ft 414 kts 344°
2026-04-26 17:54 68.60812 20.46348 38276 ft 425 kts 344°
2026-04-26 17:55 68.63630 20.44227 37342 ft 413 kts 344°
2026-04-26 17:55 68.66363 20.42168 36407 ft 402 kts 343°
2026-04-26 17:55 68.69030 20.40151 35501 ft 393 kts 343°
2026-04-26 17:55 68.71635 20.38172 34629 ft 384 kts 343°
2026-04-26 17:56 68.74178 20.36240 33732 ft 375 kts 343°
2026-04-26 17:56 68.78840 20.30771 31818 ft 358 kts 326°
2026-04-26 17:57 68.82286 20.21245 30021 ft 346 kts 309°
2026-04-26 17:57 68.83742 20.16021 28947 ft 340 kts 309°
2026-04-26 17:57 68.85180 20.10909 27927 ft 333 kts 309°
2026-04-26 17:57 68.86590 20.05884 26951 ft 328 kts 309°
2026-04-26 17:58 68.90694 19.91133 24225 ft 315 kts 308°
2026-04-26 17:59 68.93310 19.81692 22389 ft 306 kts 308°
2026-04-26 17:59 68.94596 19.77032 21477 ft 302 kts 308°
2026-04-26 17:59 68.95705 19.72151 20590 ft 298 kts 293°
2026-04-26 17:59 68.96052 19.66522 19718 ft 298 kts 269°
2026-04-26 18:00 68.95511 19.60994 18879 ft 299 kts 245°
2026-04-26 18:00 68.94136 19.56599 18378 ft 305 kts 219°
2026-04-26 18:00 68.92210 19.54175 17866 ft 308 kts 194°
2026-04-26 18:00 68.90069 19.54155 17349 ft 311 kts 169°
2026-04-26 18:01 68.88108 19.56554 16857 ft 310 kts 144°
2026-04-26 18:01 68.86655 19.60881 16386 ft 307 kts 122°
2026-04-26 18:01 68.85569 19.65935 15922 ft 304 kts 118°
2026-04-26 18:01 68.84437 19.70875 15521 ft 304 kts 124°
2026-04-26 18:02 68.83122 19.75443 15138 ft 303 kts 129°
2026-04-26 18:02 68.82222 19.78362 14904 ft 301 kts 128°
2026-04-26 18:02 68.81054 19.85202 14411 ft 293 kts 95°
2026-04-26 18:02 68.81212 19.90660 14073 ft 283 kts 69°
2026-04-26 18:03 68.82196 19.95195 13722 ft 272 kts 42°
2026-04-26 18:03 68.83766 19.97884 13336 ft 264 kts 15°
2026-04-26 18:03 68.85559 19.98191 12987 ft 258 kts 348°
2026-04-26 18:03 68.87159 19.96094 12660 ft 257 kts 321°
2026-04-26 18:04 68.88286 19.92262 12303 ft 257 kts 306°
2026-04-26 18:04 68.89275 19.88161 12001 ft 254 kts 308°
2026-04-26 18:04 68.90359 19.84390 11703 ft 252 kts 314°
2026-04-26 18:05 68.93042 19.78375 11131 ft 248 kts 331°
2026-04-26 18:05 68.94569 19.76180 10882 ft 246 kts 333°
2026-04-26 18:05 68.96069 19.73922 10644 ft 245 kts 330°
2026-04-26 18:05 68.97536 19.71553 10350 ft 243 kts 329°
2026-04-26 18:06 68.98999 19.69194 10107 ft 242 kts 330°
2026-04-26 18:06 69.00457 19.66870 9824 ft 241 kts 330°
2026-04-26 18:06 69.01911 19.64552 9526 ft 240 kts 330°
2026-04-26 18:06 69.03356 19.62244 9162 ft 239 kts 330°
2026-04-26 18:07 69.04799 19.59934 8899 ft 238 kts 330°
2026-04-26 18:07 69.06233 19.57628 8695 ft 237 kts 330°
2026-04-26 18:07 69.07663 19.55330 8475 ft 237 kts 330°
2026-04-26 18:07 69.08631 19.53772 8363 ft 237 kts 330°
2026-04-26 18:08 69.10521 19.50729 8093 ft 236 kts 330°
2026-04-26 18:08 69.11958 19.48410 7852 ft 237 kts 329°
2026-04-26 18:08 69.13379 19.46111 7721 ft 235 kts 330°
2026-04-26 18:08 69.14792 19.43823 7532 ft 234 kts 330°
2026-04-26 18:09 69.16200 19.41541 7290 ft 234 kts 330°
2026-04-26 18:09 69.17604 19.39245 7115 ft 233 kts 329°
2026-04-26 18:09 69.18998 19.36948 6970 ft 231 kts 330°
2026-04-26 18:09 69.20360 19.34706 6967 ft 224 kts 329°
2026-04-26 18:10 69.21689 19.32517 6957 ft 219 kts 330°
2026-04-26 18:10 69.22991 19.30372 6962 ft 215 kts 330°
2026-04-26 18:10 69.24267 19.28265 6967 ft 211 kts 330°
2026-04-26 18:10 69.25523 19.26190 6957 ft 208 kts 330°
2026-04-26 18:11 69.26777 19.24113 6968 ft 211 kts 330°
2026-04-26 18:11 69.28056 19.21995 6961 ft 219 kts 330°
2026-04-26 18:11 69.29366 19.19820 6973 ft 220 kts 330°
2026-04-26 18:11 69.30689 19.17621 6973 ft 221 kts 329°
2026-04-26 18:12 69.32025 19.15395 6976 ft 224 kts 329°
2026-04-26 18:12 69.33375 19.13143 6960 ft 225 kts 329°
2026-04-26 18:12 69.34721 19.10892 6809 ft 225 kts 329°
2026-04-26 18:12 69.36061 19.08651 6569 ft 221 kts 330°
2026-04-26 18:13 69.37392 19.06424 6009 ft 223 kts 330°
2026-04-26 18:13 69.38712 19.04125 5501 ft 222 kts 324°
2026-04-26 18:13 69.39754 19.00894 5016 ft 224 kts 304°
2026-04-26 18:13 69.40185 18.98336 4966 ft 210 kts 292°
2026-04-26 18:14 69.40612 18.93316 4958 ft 185 kts 287°
2026-04-26 18:14 69.40903 18.89839 4955 ft 177 kts 287°
2026-04-26 18:14 69.41189 18.86374 4958 ft 189 kts 287°
2026-04-26 18:14 69.41528 18.82609 4960 ft 204 kts 294°
2026-04-26 18:15 69.42349 18.79307 4980 ft 210 kts 317°
2026-04-26 18:15 69.43625 18.77146 4968 ft 221 kts 344°
2026-04-26 18:15 69.45183 18.76891 4973 ft 229 kts
2026-04-26 18:15 69.46758 18.77645 4987 ft 223 kts 10°
2026-04-26 18:16 69.48187 18.78629 4975 ft 200 kts 11°
2026-04-26 18:16 69.50618 18.80197 4760 ft 168 kts 10°
2026-04-26 18:16 69.51765 18.80957 4437 ft 170 kts 10°
2026-04-26 18:17 69.52921 18.81718 4116 ft 171 kts
2026-04-26 18:17 69.54087 18.82469 3790 ft 172 kts 10°
2026-04-26 18:17 69.55259 18.83241 3462 ft 174 kts 10°
2026-04-26 18:17 69.56410 18.84008 3138 ft 164 kts 10°
2026-04-26 18:18 69.57483 18.84712 2834 ft 153 kts
2026-04-26 18:18 69.58485 18.85370 2550 ft 146 kts 10°
2026-04-26 18:18 69.59439 18.86005 2283 ft 140 kts
2026-04-26 18:18 69.60390 18.86638 2022 ft 140 kts
2026-04-26 18:19 69.61338 18.87252 1747 ft 139 kts
2026-04-26 18:19 69.62282 18.87880 1448 ft 140 kts
2026-04-26 18:19 69.63236 18.88515 1165 ft 142 kts
2026-04-26 18:19 69.64202 18.89159 887 ft 143 kts
2026-04-26 18:20 69.65183 18.89815 625 ft 146 kts
2026-04-26 18:20 69.66154 18.90482 406 ft 140 kts
2026-04-26 18:20 69.67069 18.91054 129 ft 133 kts
2026-04-26 18:20 69.67668 18.91449 38 ft 129 kts 10°
2026-04-26 18:21 69.68458 18.91967 23 ft 45 kts 18°
2026-04-26 18:21 69.68696 18.92117 17 ft 26 kts
2026-04-26 18:21 69.68775 18.91867 14 ft 11 kts 283°
2026-04-26 18:21 69.68737 18.91687 14 ft 15 kts 189°
2026-04-26 18:22 69.68617 18.91610 16 ft 18 kts 194°
2026-04-26 18:22 69.68482 18.91520 21 ft 23 kts 193°
2026-04-26 18:22 69.68304 18.91479 22 ft 28 kts 189°
2026-04-26 18:22 69.68129 18.91362 29 ft 23 kts 199°
2026-04-26 18:23 69.68120 18.91034 29 ft 19 kts 283°
2026-04-26 18:23 69.68128 18.90938 28 ft 0 kts 282°